Temperature
9 9 9 9 9 9 9 9 9 9 9 9 9 9 9 10 10 10 10 10 10 10 10 10 10 10 10 11 10 11 11 11 11 11 11 11 11 11 11 11 11 11 11
8 8 8 8 8 8 8 8 8 8 8 8 8 8 9 9 9 9 9 9 10 10 10 10 10 10 10 10 10 10 10 10 10 10 10 10 10 11 11 11 10 10 10
8 8 8 8 8 8 8 8 8 7 7 8 8 8 8 8 8 9 9 9 9 9 9 9 9 9 9 9 9 9 10 10 10 10 10 10 10 10 10 10 10 10 10
7 7 7 7 7 7 7 7 7 7 7 7 7 7 7 8 8 8 8 8 8 8 9 9 9 9 9 9 9 9 9 9 9 9 9 9 9 9 9 10 9 9 9
6 6 6 6 6 6 6 6 6 6 6 6 6 7 7 7 7 8 8 8 8 8 8 8 8 8 8 8 8 8 8 8 9 9 9 9 9 9 9 9 9 9 9
5 5 5 5 5 6 6 6 6 6 6 6 6 6 6 7 7 7 7 7 7 7 7 7 8 8 8 8 8 8 8 8 8 8 8 8 8 8 8 8 8 8 8
5 5 4 5 5 5 5 5 5 5 5 5 5 5 6 6 6 6 6 6 6 7 7 7 7 7 7 7 7 7 7 7 7 7 8 8 8 8 8 8 8 8 8
4 4 4 4 4 4 4 4 4 4 4 4 4 4 4 5 5 5 5 6 6 6 6 6 6 6 7 7 7 7 7 7 7 7 7 7 7 7 7 7 7 7 7
3 3 3 3 3 3 3 3 3 3 3 3 3 3 3 4 4 4 5 5 5 5 5 5 5 6 6 6 6 6 6 6 6 6 7 7 7 7 7 7 7 7 7
3 3 3 3 3 3 3 3 2 3 3 3 3 3 3 3 3 3 3 4 4 4 5 5 5 5 5 5 5 6 6 6 6 6 6 6 6 6 6 6 6 6 6
2 2 2 2 2 2 2 2 2 2 2 2 2 2 2 2 2 2 3 3 3 4 4 4 4 4 4 4 5 5 5 5 5 5 6 6 6 6 6 6 6 6 6
2 2 2 2 2 1 2 1 2 2 2 2 2 2 2 2 2 2 2 2 2 3 3 3 3 4 4 4 4 4 4 5 5 5 5 5 6 5 5 6 6 6 6
2 1 1 1 1 1 1 1 1 1 1 1 1 1 1 1 1 1 1 1 1 2 2 3 3 3 3 4 4 4 4 4 4 4 5 5 5 5 5 5 5 5 5
1 1 1 1 0 0 1 1 1 1 1 1 1 1 1 1 1 1 1 1 1 1 2 2 2 3 3 3 3 3 4 4 4 4 4 4 5 5 5 5 5 5 5
0 0 0 -0 -0 -0 -0 -0 0 0 0 0 0 0 1 1 1 1 1 0 1 1 1 1 2 2 2 2 3 3 3 3 3 3 4 4 4 4 4 4 4 4 4
-0 -0 -0 -0 -0 -0 -1 -1 -1 -0 -0 -0 -0 -0 0 0 0 0 0 0 0 0 0 1 1 1 2 2 2 2 2 2 3 3 3 3 3 3 3 4 4 4 4
-1 -1 -1 -1 -1 -1 -1 -1 -1 -1 -1 -1 -1 -1 -0 -0 -0 -0 -0 -0 -0 -0 -0 0 1 1 1 1 2 2 2 2 2 2 2 3 3 3 3 3 3 3 3
-1 -1 -1 -1 -1 -1 -1 -1 -1 -1 -1 -1 -1 -1 -1 -1 -1 -0 -1 -1 -0 -0 -0 -0 0 0 1 1 1 1 1 1 1 1 2 2 2 2 2 2 2 2 2
-1 -1 -1 -2 -2 -2 -2 -2 -2 -2 -2 -2 -2 -1 -1 -1 -1 -1 -1 -1 -1 -1 -1 -1 -0 -0 -0 0 0 0 1 1 1 1 1 1 1 2 2 2 2 2 2
-2 -2 -2 -2 -2 -2 -2 -2 -2 -2 -2 -2 -2 -2 -2 -1 -1 -1 -1 -1 -1 -1 -1 -1 -1 -1 -1 -0 -0 -0 0 0 0 0 1 1 1 1 1 1 1 1 1
-2 -2 -2 -2 -2 -2 -2 -2 -2 -2 -2 -2 -2 -2 -2 -2 -2 -2 -2 -2 -2 -1 -2 -2 -1 -1 -1 -1 -1 -1 -1 -0 -0 -0 -0 -0 0 0 0 0 0 1 1
-2 -2 -2 -2 -3 -3 -3 -3 -3 -3 -2 -2 -2 -2 -2 -2 -2 -2 -2 -2 -2 -2 -2 -2 -2 -2 -1 -1 -1 -1 -1 -1 -1 -1 -1 -1 -1 -1 -0 -0 0 0 0
-3 -3 -3 -3 -3 -3 -3 -3 -3 -3 -3 -3 -3 -3 -3 -2 -2 -2 -2 -2 -2 -2 -2 -2 -2 -2 -2 -2 -2 -1 -1 -2 -1 -1 -1 -1 -1 -1 -1 -1 -0 -0 -1
-3 -3 -3 -3 -3 -3 -3 -3 -3 -3 -3 -3 -3 -3 -3 -3 -2 -2 -2 -2 -2 -2 -2 -2 -2 -2 -2 -2 -2 -2 -2 -2 -2 -2 -2 -2 -2 -2 -2 -1 -1 -1 -1
-4 -4 -4 -4 -4 -3 -3 -3 -3 -3 -3 -3 -3 -3 -3 -3 -3 -3 -3 -2 -2 -2 -2 -2 -2 -3 -3 -3 -2 -2 -3 -3 -3 -3 -2 -3 -3 -3 -2 -2 -2 -2 -2
-4 -4 -4 -4 -4 -4 -4 -4 -4 -4 -3 -3 -3 -3 -3 -3 -3 -3 -3 -2 -2 -2 -3 -3 -3 -3 -3 -3 -3 -3 -3 -3 -3 -3 -3 -3 -3 -3 -3 -3 -2 -2 -2
Wind_Speed
4 4 4 5 5 5 4 4 4 4 4 4 5 5 5 5 4 4 4 6 6 5 4 3 2 2 2 2 2 1 1 1 1 1 1 1 1 1 3 2 3 3 3
6 5 4 5 5 6 5 4 4 3 3 3 4 4 4 4 3 3 3 4 7 6 4 3 2 2 2 2 2 1 1 1 1 1 0 1 0 1 2 3 3 3 3
7 6 4 4 5 7 6 4 4 3 3 3 3 4 4 4 3 3 3 3 4 5 5 4 3 3 2 2 2 2 2 2 1 1 1 1 1 1 2 3 3 4 3
7 6 4 4 6 6 5 3 2 2 2 3 3 3 3 3 3 3 3 3 3 3 4 5 4 4 3 3 2 2 2 2 2 2 2 2 2 2 3 3 4 5 5
7 6 4 4 6 5 4 4 3 2 2 3 3 3 3 2 2 2 2 3 3 3 3 4 5 5 5 4 3 3 3 3 3 3 3 3 3 2 3 4 4 4 5
6 6 4 5 5 3 3 3 3 2 2 2 3 3 3 3 2 1 1 3 3 3 4 4 4 5 5 5 5 4 4 3 4 4 4 4 3 3 4 4 4 4 5
6 5 4 4 4 3 3 3 3 2 2 3 2 3 3 3 1 2 2 2 3 4 4 4 4 4 4 5 6 6 6 5 4 5 5 5 5 5 4 5 5 5 5
5 5 4 3 3 2 3 3 3 2 2 2 2 2 2 2 3 3 2 1 2 3 4 4 4 4 4 3 4 6 7 6 6 6 6 6 6 6 6 6 6 6 6
4 5 4 3 3 2 2 2 2 3 2 3 2 1 0 1 3 2 2 2 2 2 2 3 3 4 4 4 4 5 6 7 7 7 7 7 7 7 7 6 7 7 6
4 4 4 4 3 2 2 2 2 2 2 2 2 2 1 1 1 2 3 2 3 3 2 2 3 3 3 3 3 5 6 6 7 7 7 7 7 7 7 7 7 7 7
3 4 4 4 3 2 2 2 2 2 2 2 2 2 3 3 2 2 3 4 4 3 2 1 1 2 3 3 3 4 6 6 6 7 7 7 7 7 7 6 7 7 7
1 3 4 3 3 2 2 2 2 2 2 2 2 2 2 2 2 2 3 4 4 4 3 2 1 2 1 2 4 5 6 6 6 7 7 7 7 7 7 7 6 6 6
1 1 3 2 3 3 3 2 2 2 2 2 2 2 2 2 3 3 3 4 5 4 3 2 2 1 2 2 3 6 6 6 6 7 7 6 6 6 7 6 5 5 6
1 1 2 2 3 3 3 2 2 2 1 2 2 2 2 2 3 3 3 3 4 4 3 3 2 1 2 2 4 7 6 7 7 7 7 6 5 6 5 4 4 5 5
2 2 2 2 3 3 3 3 2 2 2 2 2 2 2 3 3 3 2 2 3 4 5 3 2 2 2 2 4 4 5 7 7 7 6 6 5 5 5 4 5 5 5
2 2 2 2 2 3 3 3 2 2 2 2 2 2 3 2 2 2 3 3 3 4 5 3 3 3 3 3 5 5 6 7 6 6 6 5 5 5 4 4 4 4 4
2 2 2 2 2 2 2 2 3 2 2 3 3 3 3 3 2 2 3 3 3 3 5 5 3 3 3 3 4 5 5 4 4 5 5 5 5 4 4 4 4 4 4
2 2 2 2 2 2 3 3 3 3 3 3 3 3 4 3 3 3 3 3 3 4 4 7 5 4 4 4 3 4 4 4 4 4 5 6 5 4 4 5 4 5 5
2 3 2 2 2 2 3 3 3 4 4 4 4 4 4 4 4 3 4 3 3 4 4 5 5 4 3 3 3 3 3 3 4 4 4 5 5 5 5 5 4 5 5
2 2 3 3 3 3 3 4 3 4 4 4 4 4 4 4 5 5 4 4 4 4 4 4 4 4 3 3 2 2 3 2 2 3 3 4 5 5 5 5 5 5 5
3 3 3 3 3 3 3 3 3 4 4 4 4 4 4 5 6 5 5 4 4 4 4 4 4 3 3 3 2 1 2 2 2 1 1 3 4 3 4 5 5 5 5
2 3 3 3 3 3 5 6 4 4 4 4 4 4 5 5 6 8 8 7 5 4 4 4 4 4 4 4 2 2 1 1 2 1 1 3 2 1 3 4 5 4 3
2 3 3 3 3 4 6 6 6 4 4 4 4 4 4 5 5 5 6 7 7 7 6 5 4 5 4 4 3 2 2 2 2 2 1 2 1 2 3 5 6 4 2
3 3 3 4 4 5 6 6 6 4 4 4 4 4 5 5 5 4 4 4 4 4 5 4 4 4 4 3 3 3 2 1 1 1 0 1 2 2 3 4 4 2 2
3 3 3 4 4 5 7 7 6 3 3 4 4 4 4 4 6 5 4 4 4 4 4 5 5 5 5 4 3 1 1 0 1 2 1 0 1 2 2 2 3 4 4
3 3 4 4 4 5 7 7 6 3 4 4 4 4 5 6 7 6 3 3 4 4 2 2 2 3 3 3 3 2 2 2 1 2 1 1 1 2 2 2 1 3 4
Wind_Direction
17 10 4 7 6 14 2 349 358 11 12 7 8 16 21 31 34 29 28 21 14 12 6 2 9 14 24 29 33 28 33 39 11 329 339 44 130 202 202 202 209 214 219
14 10 3 4 7 1 354 358 1 4 11 13 13 18 16 21 37 31 29 26 18 11 5 358 350 2 19 24 16 13 9 22 5 345 315 312 306 311 249 226 221 223 229
16 11 5 2 357 353 350 1 10 12 3 10 6 9 14 13 25 29 23 26 25 14 9 4 3 12 11 6 354 8 4 6 344 307 293 283 270 268 278 249 230 233 234
15 11 8 0 351 351 352 354 4 12 4 9 2 353 1 8 14 29 33 35 36 26 19 12 9 12 10 11 358 351 353 344 325 311 295 289 266 271 269 276 244 237 237
18 14 6 358 354 355 353 346 2 10 11 7 356 348 343 340 341 19 46 48 49 43 41 28 19 17 9 358 0 355 347 339 324 312 308 296 280 271 276 276 259 243 241
13 14 5 0 359 354 348 355 360 6 8 355 349 343 325 309 319 3 28 58 52 48 43 31 34 26 12 360 354 345 334 322 319 313 304 298 291 275 279 274 272 259 253
10 13 9 1 1 354 343 346 351 3 2 360 350 338 329 322 25 23 38 54 53 49 44 43 39 28 21 1 351 343 332 318 312 312 307 304 299 290 288 280 271 265 259
10 11 14 2 357 350 346 352 349 346 337 352 344 330 332 332 5 355 2 18 39 52 45 34 39 35 29 24 3 347 336 322 313 308 301 304 292 285 284 285 272 269 261
10 8 4 4 360 356 334 334 338 347 324 323 345 342 313 276 318 310 335 9 6 9 19 47 37 30 21 25 9 347 334 325 316 309 304 300 293 283 282 286 277 273 269
6 5 359 1 0 356 338 327 340 329 323 311 324 330 293 285 279 299 310 330 342 343 343 356 12 17 12 14 351 341 327 315 309 308 308 302 293 285 284 283 286 277 275
3 2 357 354 349 341 330 321 322 328 320 307 311 317 312 313 291 277 292 315 320 311 311 313 347 344 356 2 349 332 329 319 310 309 309 306 299 289 289 289 294 292 284
347 352 349 348 340 333 319 307 297 301 300 304 307 307 304 301 300 294 287 299 298 295 288 268 269 294 325 345 326 326 322 323 313 307 307 303 303 294 296 296 299 296 295
321 300 340 334 325 322 317 312 291 281 280 285 290 293 295 295 300 298 290 292 297 292 274 269 246 267 324 348 335 328 318 314 314 312 306 299 302 305 303 307 306 302 304
294 293 325 319 315 316 319 312 291 276 277 276 288 294 294 295 297 291 287 292 298 293 282 276 281 274 312 317 323 320 321 317 312 309 305 302 303 308 304 307 309 308 313
310 322 314 301 306 305 306 300 281 275 276 271 275 278 279 283 282 286 287 279 272 288 287 283 295 285 294 295 310 318 314 318 314 312 308 302 301 306 305 300 306 307 310
322 302 289 294 303 303 299 295 291 284 283 281 268 269 278 282 285 291 291 289 280 270 279 285 289 291 297 300 303 308 299 305 305 309 316 319 316 315 314 312 317 315 315
308 290 287 286 286 286 292 294 289 287 281 288 292 282 280 283 285 286 288 288 286 279 279 289 288 295 295 294 299 298 293 290 280 296 304 308 306 311 314 311 308 310 310
295 294 292 282 290 293 290 289 291 283 275 279 287 290 287 285 282 281 281 281 283 281 277 285 291 298 295 288 293 296 301 302 284 284 292 297 296 300 301 298 300 307 302
299 296 290 276 274 279 283 283 283 276 270 272 278 282 283 277 273 279 278 279 287 292 284 279 286 292 297 298 303 300 307 300 300 287 291 292 297 302 300 297 299 298 301
302 286 282 279 272 272 275 278 281 280 273 271 272 269 273 270 269 269 270 273 282 288 287 281 282 286 294 298 303 309 318 312 305 312 315 311 313 306 301 297 300 291 295
307 297 281 280 279 271 270 285 283 284 281 278 275 271 271 274 278 277 274 268 270 273 278 281 280 284 287 297 291 294 304 320 320 328 357 319 315 313 312 308 303 292 290
294 299 297 286 278 285 292 297 297 277 282 280 281 283 279 274 281 284 282 280 273 267 269 268 272 273 278 279 278 281 284 305 301 330 354 316 321 338 319 316 319 311 292
289 288 290 294 289 288 294 294 304 295 277 276 276 278 283 280 281 276 281 286 282 274 264 254 254 261 271 279 265 265 268 259 267 279 327 304 331 319 309 318 321 314 314
290 285 289 290 289 296 305 305 305 291 274 272 274 273 275 279 275 277 272 276 276 275 267 256 245 263 271 274 250 241 251 265 297 299 328 286 310 314 327 321 322 335 354
297 296 294 291 288 295 301 304 310 286 279 281 280 275 273 278 282 289 274 269 278 285 276 263 265 274 287 293 288 264 271 207 306 314 335 305 313 327 323 326 336 0 352
297 300 301 294 291 288 294 301 304 284 284 289 291 284 277 280 290 287 259 255 265 271 275 298 298 299 295 292 293 258 223 211 240 289 326 5 316 348 330 321 344 339 333
Height
1514 1514 1513 1513 1513 1512 1513 1513 1513 1513 1513 1513 1513 1512 1512 1512 1512 1512 1513 1513 1514 1514 1514 1515 1515 1515 1516 1516 1516 1517 1517 1518 1519 1519 1520 1521 1522 1522 1523 1524 1524 1525 1525
1512 1512 1512 1512 1511 1511 1511 1511 1511 1511 1510 1510 1510 1510 1510 1510 1510 1510 1510 1510 1511 1511 1512 1512 1512 1513 1513 1513 1514 1514 1514 1515 1516 1516 1517 1518 1518 1519 1520 1520 1521 1521 1522
1510 1509 1510 1509 1509 1508 1508 1508 1508 1508 1508 1508 1508 1508 1508 1507 1507 1507 1507 1508 1508 1508 1509 1509 1509 1510 1510 1510 1510 1511 1511 1512 1512 1513 1514 1514 1515 1515 1516 1517 1517 1518 1518
1507 1507 1507 1507 1507 1506 1506 1505 1505 1505 1505 1505 1505 1505 1505 1505 1505 1505 1505 1505 1505 1505 1506 1506 1506 1506 1507 1507 1507 1508 1508 1509 1509 1510 1510 1511 1511 1512 1512 1513 1514 1514 1515
1505 1505 1505 1505 1505 1505 1504 1503 1503 1503 1502 1502 1502 1502 1502 1502 1502 1502 1502 1502 1502 1503 1503 1503 1503 1503 1504 1504 1504 1505 1505 1505 1505 1506 1506 1507 1507 1508 1509 1509 1510 1511 1511
1503 1503 1503 1502 1502 1502 1502 1501 1501 1501 1500 1500 1500 1500 1500 1500 1500 1500 1500 1500 1500 1501 1501 1500 1500 1500 1500 1501 1501 1502 1502 1502 1502 1503 1503 1503 1503 1504 1505 1505 1506 1507 1507
1501 1501 1500 1500 1500 1500 1499 1499 1499 1498 1498 1498 1498 1497 1497 1498 1498 1498 1498 1498 1498 1498 1497 1497 1497 1497 1497 1497 1498 1498 1498 1499 1499 1499 1499 1499 1500 1500 1501 1501 1501 1502 1503
1499 1498 1498 1497 1497 1497 1497 1497 1496 1496 1496 1496 1497 1496 1496 1497 1496 1496 1496 1495 1495 1495 1495 1495 1494 1494 1494 1494 1494 1494 1495 1495 1495 1495 1495 1495 1496 1496 1497 1497 1497 1498 1499
1497 1496 1495 1495 1495 1494 1494 1494 1494 1494 1494 1494 1495 1496 1495 1494 1494 1493 1493 1493 1493 1492 1492 1492 1491 1491 1491 1491 1491 1491 1491 1491 1491 1491 1491 1491 1491 1492 1492 1492 1493 1493 1494
1494 1493 1493 1492 1492 1492 1492 1492 1492 1492 1492 1492 1492 1493 1495 1494 1493 1491 1491 1490 1490 1490 1489 1489 1489 1488 1488 1488 1487 1487 1487 1487 1487 1487 1487 1487 1487 1488 1488 1488 1489 1489 1489
1491 1491 1490 1489 1489 1489 1489 1489 1489 1489 1489 1490 1490 1490 1491 1491 1491 1490 1488 1487 1487 1487 1487 1487 1486 1485 1485 1485 1484 1483 1483 1483 1483 1483 1483 1483 1483 1483 1484 1484 1484 1484 1485
1488 1487 1487 1487 1486 1486 1486 1486 1486 1486 1487 1487 1487 1487 1487 1487 1487 1487 1486 1485 1484 1484 1484 1484 1483 1482 1482 1481 1480 1480 1479 1479 1479 1478 1478 1478 1479 1479 1479 1480 1480 1480 1481
1485 1484 1484 1484 1484 1484 1484 1483 1483 1483 1484 1484 1484 1484 1485 1485 1485 1484 1484 1483 1481 1480 1480 1480 1479 1479 1479 1478 1477 1476 1475 1474 1474 1474 1474 1474 1474 1474 1474 1475 1475 1475 1476
1482 1482 1481 1481 1481 1481 1481 1481 1481 1481 1481 1481 1481 1481 1481 1481 1482 1482 1481 1481 1479 1477 1477 1476 1476 1476 1475 1474 1473 1472 1471 1470 1470 1470 1469 1469 1469 1470 1470 1470 1471 1471 1471
1480 1480 1479 1479 1479 1479 1479 1478 1478 1478 1478 1478 1478 1478 1478 1478 1478 1478 1478 1478 1478 1475 1473 1473 1473 1472 1472 1471 1469 1468 1467 1466 1465 1465 1465 1465 1465 1465 1466 1466 1466 1466 1467
1478 1477 1477 1476 1476 1476 1476 1476 1476 1476 1476 1475 1475 1475 1475 1475 1475 1475 1475 1475 1475 1474 1471 1469 1469 1469 1468 1467 1466 1464 1463 1462 1462 1461 1461 1461 1461 1461 1461 1461 1461 1462 1462
1475 1475 1474 1474 1474 1474 1474 1473 1473 1473 1473 1472 1472 1472 1472 1472 1472 1472 1471 1471 1471 1471 1468 1466 1466 1465 1464 1463 1461 1460 1459 1458 1458 1457 1457 1456 1457 1457 1457 1457 1457 1458 1458
1473 1472 1472 1472 1471 1471 1471 1471 1470 1470 1470 1470 1469 1469 1469 1469 1468 1468 1468 1468 1467 1467 1466 1463 1461 1460 1460 1459 1457 1456 1455 1455 1454 1454 1453 1453 1453 1453 1453 1453 1454 1454 1454
1470 1470 1469 1469 1469 1468 1468 1468 1468 1468 1467 1467 1466 1466 1466 1465 1465 1465 1464 1464 1463 1463 1462 1460 1457 1457 1456 1455 1454 1453 1451 1451 1451 1450 1449 1449 1449 1449 1449 1450 1450 1450 1450
1467 1467 1467 1466 1466 1466 1465 1465 1465 1464 1464 1464 1463 1463 1462 1462 1462 1461 1461 1460 1459 1458 1458 1456 1454 1453 1452 1451 1450 1449 1447 1447 1447 1447 1446 1446 1446 1446 1446 1446 1446 1446 1446
1465 1465 1464 1464 1463 1463 1463 1462 1462 1462 1461 1460 1460 1459 1459 1459 1458 1458 1457 1456 1456 1455 1454 1452 1451 1450 1449 1448 1446 1445 1444 1444 1444 1444 1443 1443 1442 1442 1442 1442 1442 1442 1442
1462 1462 1462 1461 1461 1460 1460 1460 1459 1458 1458 1457 1456 1456 1455 1455 1454 1454 1454 1453 1452 1451 1450 1449 1447 1446 1445 1444 1443 1442 1442 1441 1441 1442 1440 1440 1440 1439 1439 1439 1439 1439 1439
1460 1459 1459 1458 1458 1458 1457 1457 1456 1455 1454 1454 1453 1452 1452 1451 1451 1450 1449 1448 1448 1447 1447 1446 1444 1443 1442 1441 1440 1439 1439 1438 1438 1438 1438 1436 1437 1436 1437 1436 1436 1436 1436
1457 1456 1456 1455 1455 1455 1454 1454 1453 1452 1451 1451 1450 1449 1449 1448 1447 1447 1446 1445 1444 1443 1442 1442 1441 1440 1439 1438 1438 1437 1436 1436 1436 1436 1436 1434 1434 1434 1434 1433 1434 1434 1434
1454 1453 1453 1452 1452 1452 1451 1451 1450 1449 1448 1447 1447 1446 1445 1445 1444 1444 1442 1441 1440 1439 1439 1438 1438 1437 1436 1436 1435 1434 1433 1433 1432 1433 1433 1432 1431 1431 1431 1431 1431 1431 1431
1451 1451 1450 1450 1449 1448 1448 1448 1447 1446 1444 1443 1443 1442 1442 1441 1441 1440 1439 1438 1436 1436 1435 1434 1434 1433 1433 1432 1432 1432 1431 1431 1430 1430 1430 1430 1429 1429 1429 1429 1429 1429 1429